Lemon Creek (Juneau) AK US current weather conditions

sailwx.info

Wind from 174 at 4 knots gusting 6

Air temperature 15.0° C
Dewpoint 12.2° C

Last reported at 2020-Aug-03 22:36 UTC.
Time now 2020-Aug-03 23:36 UTC

Location: N 58°21' W 134°30'.
View on Google Maps.

See reports from other nearby stations

  
Tides and Currents Weather Stations Pressure Air Temp Water Temp Dewpoint Dewpoint Depression Visibility Wind Speed Wind Dir Waves Ship Positions
date/time (UTC)wind fromknots sea level pressurealtimeterstation pressurevisibilityair tempwater tempwave heightnotes
2020-Aug-03 22:36 174 4 gusting 6 15.0
2020-Aug-03 22:16 157 4 gusting 8 15.6
2020-Aug-03 21:56 189 3 gusting 10 15.6
2020-Aug-03 21:36 160 6 gusting 6 15.6
2020-Aug-03 21:16 164 6 gusting 6 16.1
2020-Aug-03 20:56 195 3 gusting 5 16.7
2020-Aug-03 20:36 185 6 gusting 6 15.6
2020-Aug-03 20:16 163 7 gusting 7 15.6
2020-Aug-03 19:56 264 2 gusting 5 15.6
2020-Aug-03 19:36 16.1
2020-Aug-03 19:16 177 1 gusting 2 14.4
2020-Aug-03 18:56 115 2 gusting 2 13.9
2020-Aug-03 18:36 181 1 gusting 4 13.9
2020-Aug-03 18:16 165 1 gusting 2 13.9
2020-Aug-03 17:56 180 1 gusting 2 13.9
2020-Aug-03 17:36 158 0 gusting 2 13.3
2020-Aug-03 17:16 194 0 gusting 1 13.3
2020-Aug-03 16:56 206 0 gusting 0 13.3
2020-Aug-03 16:36 13.3
2020-Aug-03 16:16 187 2 gusting 3 12.8
2020-Aug-03 15:56 228 0 gusting 3 12.8
2020-Aug-03 15:36 147 1 gusting 2 12.8
2020-Aug-03 15:16 13.3
2020-Aug-03 14:56 181 3 gusting 4 12.8
2020-Aug-03 14:36 204 1 gusting 2 12.8
2020-Aug-03 14:16 202 0 gusting 2 13.3
2020-Aug-03 13:56 154 1 gusting 2 12.8
2020-Aug-03 13:36 185 0 gusting 1 12.8
2020-Aug-03 13:16 133 0 gusting 2 12.8
2020-Aug-03 12:56 177 3 gusting 4 12.8
2020-Aug-03 12:36 169 2 gusting 6 12.8
2020-Aug-03 12:16 173 1 gusting 2 13.3
2020-Aug-03 11:56 175 2 gusting 2 13.3
2020-Aug-03 11:36 13.3
2020-Aug-03 11:16 13.3
2020-Aug-03 10:56 171 1 gusting 4 13.3
2020-Aug-03 10:36 141 3 gusting 5 13.3
2020-Aug-03 10:16 152 5 gusting 5 13.3
2020-Aug-03 09:56 160 0 gusting 1 13.9
2020-Aug-03 09:36 142 1 gusting 3 13.9
2020-Aug-03 09:16 194 3 gusting 6 13.3
2020-Aug-03 08:56 167 1 gusting 2 13.9
2020-Aug-03 08:36 188 1 gusting 2 13.3
2020-Aug-03 08:16 234 0 gusting 1 13.9
2020-Aug-03 07:56 211 0 gusting 0 13.9
2020-Aug-03 07:36 142 0 gusting 0 13.3
2020-Aug-03 07:16 010 0 gusting 0 13.3
2020-Aug-03 06:56 13.3
2020-Aug-03 06:36 13.3
2020-Aug-03 06:16 13.3
2020-Aug-03 05:56 13.3
2020-Aug-03 05:36 13.3
2020-Aug-03 05:16 13.3
2020-Aug-03 04:56 241 0 gusting 0 13.9
2020-Aug-03 04:36 239 0 gusting 0 14.4
2020-Aug-03 04:16 14.4
2020-Aug-03 03:56 181 0 gusting 1 15.0
2020-Aug-03 03:36 157 0 gusting 2 15.0
2020-Aug-03 03:16 202 1 gusting 4 15.0
2020-Aug-03 02:56 15.6
2020-Aug-03 02:36 15.6
2020-Aug-03 02:16 15.6
2020-Aug-03 01:56 15.6
2020-Aug-03 01:36 15.6
2020-Aug-03 01:16 187 0 gusting 0 16.1
2020-Aug-03 00:56 243 0 gusting 0 16.1
2020-Aug-03 00:36 167 2 gusting 2 15.6
2020-Aug-03 00:16 193 0 gusting 3 15.6
2020-Aug-02 23:56 052 0 gusting 2 15.6
2020-Aug-02 23:36 220 2 gusting 3 15.0
2020-Aug-02 23:16 125 2 gusting 5 15.6
2020-Aug-02 22:56 117 3 gusting 5 15.6
2020-Aug-02 22:36 198 2 gusting 4 16.1
2020-Aug-02 22:16 146 5 gusting 6 16.7
2020-Aug-02 21:56 181 1 gusting 7 16.7
2020-Aug-02 21:36 234 3 gusting 5 16.7
2020-Aug-02 21:16 177 3 gusting 7 17.2
2020-Aug-02 20:56 269 5 gusting 7 16.7
2020-Aug-02 20:36 218 6 gusting 6 17.2
2020-Aug-02 20:16 229 6 gusting 7 17.2
2020-Aug-02 19:56 163 9 gusting 9 17.2
2020-Aug-02 19:36 179 5 gusting 7 16.7
2020-Aug-02 19:16 203 6 gusting 6 16.7
2020-Aug-02 18:56 175 3 gusting 8 16.1
2020-Aug-02 18:36 16.1
2020-Aug-02 18:16 191 3 gusting 3 16.1
2020-Aug-02 17:56 149 5 gusting 5 15.6
2020-Aug-02 17:36 152 2 gusting 4 15.0
2020-Aug-02 17:16 189 3 gusting 3 14.4
2020-Aug-02 16:56 233 0 gusting 0 15.0
2020-Aug-02 16:36 080 0 gusting 0 15.0
2020-Aug-02 16:16 112 0 gusting 0 15.0
2020-Aug-02 15:56 14.4
2020-Aug-02 15:36 14.4
2020-Aug-02 15:16 258 2 gusting 2 15.0
2020-Aug-02 14:56 15.0
2020-Aug-02 14:36 170 0 gusting 1 15.0
2020-Aug-02 14:16 033 2 gusting 2 15.0
2020-Aug-02 13:56 087 0 gusting 1 15.0
2020-Aug-02 13:36 15.0
2020-Aug-02 13:16 158 4 gusting 5 15.6
2020-Aug-02 12:56 181 3 gusting 4 15.6
2020-Aug-02 12:36 104 4 gusting 6 15.0
2020-Aug-02 12:16 235 4 gusting 4 15.0
2020-Aug-02 11:56 200 2 gusting 3 15.0
2020-Aug-02 11:36 106 0 gusting 2 15.6
2020-Aug-02 11:16 175 3 gusting 3 15.6
2020-Aug-02 10:56 227 3 gusting 4 15.6
2020-Aug-02 10:36 105 1 gusting 8 15.6
2020-Aug-02 10:16 204 3 gusting 3 15.0
2020-Aug-02 09:56 222 0 gusting 5 15.0
2020-Aug-02 09:36 161 2 gusting 8 14.4
2020-Aug-02 09:16 184 1 gusting 6 14.4
2020-Aug-02 08:56 144 5 gusting 5 14.4
2020-Aug-02 08:36 190 4 gusting 4 14.4
2020-Aug-02 08:16 104 4 gusting 6 14.4
2020-Aug-02 07:56 228 3 gusting 6 14.4
2020-Aug-02 07:36 155 2 gusting 8 14.4
2020-Aug-02 07:16 147 4 gusting 5 15.0
2020-Aug-02 06:56 204 0 gusting 6 15.6
2020-Aug-02 06:36 212 6 gusting 6 15.6
2020-Aug-02 06:16 109 0 gusting 4 16.1
2020-Aug-02 05:56 111 0 gusting 1 15.0
2020-Aug-02 05:36 104 0 gusting 2 15.0
2020-Aug-02 05:16 359 0 gusting 2 15.6
2020-Aug-02 04:56 097 1 gusting 1 15.6
2020-Aug-02 04:36 217 5 gusting 5 15.0
2020-Aug-02 04:16 226 3 gusting 8 15.6
2020-Aug-02 03:56 249 6 gusting 6 16.7
2020-Aug-02 03:36 193 1 gusting 4 16.7
2020-Aug-02 03:16 156 1 gusting 11 17.2
2020-Aug-02 02:56 190 5 gusting 5 17.2
2020-Aug-02 02:36 216 5 gusting 8 16.7
2020-Aug-02 02:16 200 2 gusting 6 17.2
2020-Aug-02 01:56 171 6 gusting 9 16.7
2020-Aug-02 01:36 171 5 gusting 6 16.7
2020-Aug-02 00:36 111 3 gusting 6 18.3
2020-Aug-02 00:16 076 2 gusting 5 18.3
2020-Aug-01 23:56 156 2 gusting 5 18.3
2020-Aug-01 23:36 194 1 gusting 11 18.3
2020-Aug-01 23:16 221 6 gusting 6 18.9